Temperature
17 17 17 17 17 17 17 17 17 16 16 17 17 17 17 16 16 16 16 16 16 16 16 16 16 16 15 15 15 15 15 14 14 14 14 14 14 14
17 17 17 17 17 17 17 17 17 17 16 17 17 17 17 16 16 16 16 16 16 16 16 16 16 15 15 15 15 15 15 14 14 14 14 14 14 14
17 17 17 17 17 17 17 17 16 16 16 17 16 16 16 16 16 16 16 16 16 16 16 16 16 15 15 15 15 15 14 14 14 14 14 14 14 14
17 16 17 17 17 17 16 16 16 16 16 16 16 16 16 16 16 16 16 16 16 15 15 15 15 15 15 15 15 15 14 14 14 14 14 13 13 13
16 16 16 16 16 16 16 16 16 16 16 16 16 16 16 16 16 15 15 16 15 15 15 15 15 15 15 15 15 15 14 14 14 14 13 13 13 13
16 16 16 16 16 16 16 16 16 16 16 16 16 16 15 15 15 15 15 15 15 15 15 15 15 15 15 14 14 14 14 14 14 14 13 13 13 13
16 16 16 16 16 16 16 16 16 16 15 15 15 15 15 15 15 15 15 15 15 15 15 15 15 15 15 14 14 14 14 14 14 14 13 13 13 13
16 16 16 16 16 16 16 15 15 15 15 15 15 15 15 15 15 14 14 14 14 14 14 14 14 14 14 14 14 14 14 14 14 13 13 13 13 13
16 16 15 15 15 15 15 15 15 15 15 15 15 15 15 15 14 14 14 14 14 14 14 14 14 14 14 14 14 14 14 14 14 13 13 13 13 13
15 15 15 15 15 15 15 15 15 15 15 14 14 14 14 14 14 14 14 14 14 14 13 13 14 14 14 14 14 14 14 14 13 13 13 13 13 13
15 15 15 15 15 15 15 15 15 15 15 14 14 14 14 14 14 14 14 13 13 14 13 13 13 13 14 14 14 14 14 13 13 13 13 13 13 12
15 15 15 15 15 14 14 14 14 14 14 14 14 14 14 14 14 14 13 13 13 13 13 13 13 13 13 13 13 13 13 13 13 13 13 13 12 12
15 15 15 14 14 14 14 14 14 14 14 14 14 14 14 14 14 13 13 13 13 13 13 13 13 13 12 13 13 13 13 13 13 13 12 12 12 12
14 14 14 14 14 14 14 14 14 14 14 13 13 13 13 13 13 13 13 13 13 13 13 12 12 12 12 12 12 13 13 13 12 12 12 12 12 12
14 14 14 14 14 14 13 13 13 13 13 13 13 13 13 13 13 13 13 12 12 12 12 12 12 12 12 12 12 12 12 12 12 12 12 12 12 11
13 13 13 13 13 13 13 13 12 12 12 12 12 12 12 12 12 12 12 12 12 12 12 12 12 12 12 12 12 12 12 12 12 12 12 12 11 11
13 13 13 13 13 13 13 12 12 12 12 12 12 12 12 12 12 11 11 11 11 11 11 12 12 11 11 11 11 11 11 11 12 12 11 11 11 11
12 12 12 12 12 12 12 12 12 12 11 11 11 11 11 11 11 11 11 10 10 10 11 11 11 11 11 11 11 11 11 11 11 11 11 11 11 11
12 12 12 12 12 11 11 11 11 11 11 11 11 11 11 11 10 10 10 10 10 10 10 10 10 10 10 10 10 11 10 10 10 10 10 10 11 11
11 11 11 11 11 11 10 10 10 10 10 10 10 10 10 10 10 10 10 10 9 9 9 9 9 9 9 9 9 10 10 10 10 10 10 10 10 10
10 10 10 10 10 10 10 10 10 10 9 9 9 9 9 9 9 9 9 9 9 9 9 9 9 9 9 9 9 9 10 10 10 10 10 10 10 10
10 10 10 10 10 9 9 9 9 9 9 9 9 9 9 9 8 8 8 8 8 8 8 8 8 8 8 8 8 8 9 9 9 9 9 9 9 9
10 9 9 9 9 9 9 9 9 8 8 8 8 8 8 8 8 8 8 8 8 7 7 7 8 8 8 8 8 8 8 8 8 8 9 9 9 9
Wind_Speed
3 3 2 2 2 2 3 3 4 3 4 4 3 3 6 8 10 10 10 12 14 15 15 14 13 13 13 13 12 12 11 11 10 10 10 10 10 10
2 2 2 2 2 2 2 2 3 4 4 4 4 3 3 5 7 8 9 10 12 13 13 14 14 14 14 14 14 13 12 12 11 11 10 10 10 10
2 2 3 2 2 2 2 2 2 3 4 4 2 2 2 3 3 5 7 7 8 11 12 13 14 13 14 14 14 14 13 13 13 12 12 11 10 10
3 3 4 3 3 3 2 3 3 3 4 4 3 2 3 3 3 3 4 6 7 9 12 13 13 13 13 13 14 15 14 14 14 14 13 12 12 11
4 4 4 3 3 3 3 3 3 3 3 3 3 2 2 1 1 2 3 3 6 7 10 12 13 14 14 14 14 15 15 15 15 15 14 13 13 13
4 4 4 4 5 4 4 4 3 2 2 2 3 2 2 2 1 2 3 3 4 4 6 9 11 12 13 14 14 15 15 16 16 15 15 14 15 14
4 4 4 5 5 5 4 3 3 3 2 2 3 2 2 2 3 3 4 3 4 3 3 4 5 6 9 12 14 14 15 16 16 16 16 16 15 15
5 4 5 5 5 6 5 5 4 4 4 4 3 4 5 4 3 3 3 2 4 3 3 5 4 5 7 9 13 15 16 16 16 16 16 16 16 16
5 4 4 4 4 4 4 4 5 6 6 6 5 6 5 5 4 4 4 5 5 4 3 5 4 6 7 10 13 15 15 15 16 16 16 17 17 16
5 5 5 4 4 3 3 3 4 5 6 5 6 6 5 5 5 5 5 5 4 3 4 5 4 6 6 8 13 16 16 17 17 17 17 17 17 17
4 4 4 4 4 4 3 3 4 5 6 6 6 6 7 6 4 2 2 2 4 5 4 4 4 4 4 6 10 14 16 17 17 17 17 17 17 15
3 3 3 4 4 4 4 4 5 6 4 3 4 5 5 6 6 5 5 4 3 4 4 5 3 2 3 4 5 7 10 13 16 16 17 17 15 11
3 3 4 5 5 5 5 5 7 6 4 3 3 4 3 4 4 5 5 5 5 6 4 5 4 4 4 3 3 5 6 6 8 11 14 16 16 13
4 4 4 5 5 5 5 6 6 4 2 2 3 3 4 4 5 5 7 7 8 8 7 5 4 5 4 4 4 3 4 6 6 6 8 11 14 16
3 3 4 4 4 4 5 4 3 2 2 2 3 4 4 5 4 3 4 5 6 7 7 7 5 5 5 6 5 4 3 5 6 6 6 7 7 7
2 3 3 3 1 2 2 2 2 2 2 3 3 3 3 3 3 3 3 3 3 5 6 7 7 6 6 7 6 6 5 4 5 6 6 6 7 9
1 1 1 1 2 2 2 2 2 1 1 2 2 2 3 3 4 3 2 2 3 5 5 4 5 6 7 6 6 7 6 6 5 6 6 6 7 9
3 1 1 1 2 2 2 2 2 2 2 2 2 2 3 3 4 4 3 3 4 5 5 4 3 3 3 4 7 7 6 7 6 6 6 7 8 8
2 1 1 2 2 2 2 2 2 2 2 1 2 2 2 3 3 4 4 4 5 5 5 4 3 3 5 7 6 7 7 6 4 5 6 7 8 9
1 1 2 2 2 2 2 2 2 2 1 1 2 2 2 3 4 4 4 5 5 6 5 5 4 5 6 7 5 5 7 6 5 6 6 5 6 6
1 1 1 1 1 1 1 1 1 1 1 1 2 2 2 3 4 5 5 6 5 5 5 6 6 7 5 3 4 5 4 6 7 6 5 5 4 4
1 1 1 1 1 1 1 1 1 1 1 2 2 3 3 3 4 5 5 5 5 5 6 6 5 4 3 4 6 7 6 5 6 8 8 8 5 6
1 1 1 2 1 1 1 1 1 1 1 1 2 3 3 3 4 4 5 5 5 6 6 6 5 3 4 4 5 6 6 6 4 4 6 8 11 12
Wind_Direction
218 212 213 229 211 200 185 177 179 226 258 254 246 233 218 218 222 219 221 225 221 221 220 221 221 222 222 222 222 223 226 229 233 233 231 232 233 233
218 214 235 248 243 225 208 201 188 192 234 247 241 249 222 221 223 215 222 226 225 223 221 221 223 224 223 223 223 224 224 226 228 229 228 231 234 233
237 226 241 239 244 244 223 212 209 191 229 263 252 262 230 224 220 219 225 221 226 226 225 223 223 223 224 226 225 225 226 226 228 229 231 232 232 231
236 236 250 249 248 248 233 231 227 214 211 250 263 245 234 226 216 219 227 225 226 231 228 227 227 228 228 229 230 229 228 228 228 230 232 232 232 233
224 226 241 243 253 258 248 246 244 237 212 221 246 240 244 240 224 248 241 236 232 237 232 230 232 234 233 233 232 231 230 230 230 231 231 232 232 233
227 225 229 227 237 246 247 247 237 235 229 225 242 246 242 240 199 235 260 253 246 241 231 232 235 235 237 237 234 232 232 232 232 232 232 232 232 232
239 236 234 229 232 232 239 240 229 226 229 229 241 244 244 233 232 221 237 254 257 235 230 235 230 234 238 238 237 234 234 234 234 233 234 234 233 233
239 245 248 243 247 246 245 236 218 218 224 226 233 239 246 238 233 225 225 234 259 234 213 246 221 238 239 235 236 234 233 234 235 235 234 234 233 233
227 234 251 256 246 252 260 258 250 239 220 215 227 239 235 227 214 227 229 230 240 225 200 243 231 241 245 242 236 235 236 236 236 235 235 235 234 233
227 220 227 248 250 238 252 266 268 262 244 230 229 239 236 223 208 214 224 239 262 241 193 231 237 241 247 242 240 237 237 236 235 235 235 235 235 234
241 232 222 227 240 221 220 251 273 279 273 249 238 243 247 241 224 198 215 232 266 259 212 215 238 247 251 247 245 240 238 238 236 234 234 235 235 233
250 249 235 231 242 218 210 227 257 266 275 288 278 279 267 258 239 214 211 226 247 255 222 206 229 215 262 255 241 238 238 240 237 236 235 234 230 224
240 250 254 256 254 242 227 229 247 254 251 248 261 271 274 269 259 241 226 221 234 246 227 197 217 213 223 255 257 236 230 233 231 237 237 234 227 217
232 244 256 267 264 257 247 254 261 256 246 252 263 266 266 267 264 255 246 241 237 243 236 208 219 216 220 242 258 240 229 230 223 228 232 230 228 227
244 260 277 286 275 262 265 272 261 235 226 248 264 271 268 267 269 273 274 267 265 261 250 230 228 229 221 231 244 237 236 235 221 222 222 218 216 216
290 302 310 311 290 283 295 282 257 232 222 246 267 277 291 298 293 286 279 281 283 288 280 256 240 230 238 243 238 241 230 227 222 219 217 220 221 217
201 6 354 342 324 316 306 297 287 289 275 282 283 298 305 309 305 305 290 284 273 283 293 296 275 252 238 236 246 245 239 236 230 214 211 225 228 223
123 142 268 274 272 276 288 297 293 285 277 271 278 281 289 294 302 313 306 285 279 280 283 286 294 300 292 269 235 240 242 240 235 220 210 221 237 232
115 208 252 263 264 269 268 264 268 275 277 280 288 297 300 304 307 307 306 298 289 284 283 284 282 269 273 275 269 235 237 248 239 228 222 221 232 235
121 246 263 264 255 254 259 265 278 298 313 314 305 306 306 307 308 304 300 294 290 287 287 286 273 261 257 264 272 278 248 239 243 246 245 239 242 247
257 267 271 279 289 288 275 275 276 301 311 312 304 293 290 293 298 299 299 299 294 291 287 280 273 271 266 277 283 282 277 249 238 242 238 240 250 245
315 313 332 355 348 343 340 347 357 348 338 333 315 303 295 288 286 288 290 295 291 285 284 287 296 298 282 270 274 278 285 293 277 262 244 222 215 225
352 358 2 10 14 1 349 4 10 339 336 319 306 301 300 296 289 283 281 283 288 293 295 296 302 299 282 270 270 279 285 290 293 289 279 262 244 246
Height
1541 1542 1542 1543 1543 1543 1543 1544 1544 1542 1541 1542 1541 1541 1541 1541 1541 1541 1541 1542 1542 1542 1542 1542 1542 1542 1543 1543 1543 1543 1543 1543 1544 1544 1544 1544 1545 1545
1539 1540 1540 1540 1540 1541 1541 1541 1541 1541 1539 1539 1539 1539 1538 1538 1538 1538 1538 1538 1538 1538 1538 1539 1539 1539 1539 1539 1539 1539 1539 1540 1540 1541 1541 1541 1541 1542
1537 1537 1537 1538 1538 1538 1538 1538 1538 1538 1537 1536 1536 1536 1535 1535 1535 1535 1535 1534 1535 1535 1535 1535 1535 1535 1535 1535 1536 1536 1536 1536 1536 1537 1537 1538 1538 1538
1535 1535 1535 1535 1535 1535 1535 1535 1535 1534 1534 1532 1532 1532 1532 1531 1531 1531 1531 1531 1531 1531 1531 1531 1531 1531 1532 1532 1532 1532 1532 1532 1533 1533 1533 1534 1534 1534
1532 1532 1532 1532 1532 1532 1532 1532 1531 1531 1531 1530 1529 1529 1528 1528 1527 1527 1527 1526 1526 1526 1527 1527 1527 1527 1528 1528 1528 1528 1528 1529 1529 1529 1530 1530 1530 1530
1529 1530 1530 1530 1529 1529 1529 1528 1528 1528 1527 1527 1526 1526 1525 1525 1524 1523 1522 1522 1522 1523 1523 1523 1523 1523 1523 1524 1524 1524 1524 1524 1525 1525 1525 1526 1526 1526
1527 1527 1527 1527 1526 1526 1526 1525 1525 1525 1524 1523 1523 1522 1521 1521 1520 1520 1519 1518 1518 1519 1519 1519 1519 1519 1519 1519 1519 1520 1520 1520 1521 1521 1521 1522 1522 1522
1523 1523 1523 1523 1523 1523 1522 1522 1522 1521 1520 1520 1519 1519 1518 1518 1517 1517 1516 1515 1514 1515 1515 1514 1515 1514 1515 1515 1515 1515 1516 1516 1516 1516 1517 1517 1517 1518
1520 1520 1520 1519 1519 1519 1518 1518 1518 1517 1517 1517 1516 1515 1514 1514 1514 1513 1512 1512 1510 1511 1511 1509 1509 1509 1510 1510 1510 1511 1511 1511 1511 1512 1512 1512 1512 1513
1516 1516 1515 1515 1515 1515 1515 1514 1513 1513 1513 1513 1512 1511 1511 1510 1510 1510 1509 1508 1507 1506 1506 1504 1504 1504 1504 1504 1505 1505 1505 1505 1506 1506 1506 1507 1507 1507
1511 1511 1511 1511 1511 1511 1511 1510 1509 1509 1509 1509 1508 1508 1507 1506 1505 1505 1504 1503 1501 1500 1501 1500 1498 1498 1498 1498 1499 1499 1500 1500 1500 1500 1501 1501 1502 1502
1507 1507 1507 1507 1507 1507 1506 1506 1505 1505 1505 1504 1504 1503 1502 1502 1501 1501 1500 1499 1497 1495 1495 1495 1494 1494 1493 1492 1493 1493 1494 1494 1495 1495 1495 1495 1496 1496
1503 1503 1503 1503 1502 1502 1502 1502 1501 1501 1500 1499 1499 1498 1498 1497 1496 1496 1495 1494 1493 1491 1491 1490 1489 1489 1488 1487 1487 1488 1488 1488 1489 1489 1489 1489 1490 1490
1498 1498 1498 1498 1498 1498 1497 1497 1497 1497 1496 1495 1494 1493 1492 1492 1491 1491 1490 1489 1488 1487 1486 1486 1484 1483 1483 1481 1480 1480 1481 1482 1482 1482 1483 1483 1483 1484
1493 1493 1494 1494 1493 1493 1493 1492 1492 1492 1491 1490 1489 1488 1488 1488 1487 1485 1484 1483 1482 1481 1481 1480 1479 1478 1478 1476 1475 1474 1474 1475 1475 1476 1476 1476 1477 1477
1490 1490 1489 1489 1489 1489 1488 1488 1488 1487 1487 1486 1485 1485 1484 1483 1482 1480 1479 1477 1476 1475 1475 1475 1474 1473 1471 1471 1470 1469 1469 1468 1468 1469 1469 1469 1470 1471
1486 1486 1486 1485 1485 1484 1484 1484 1483 1483 1482 1482 1481 1480 1479 1478 1477 1476 1474 1473 1471 1470 1469 1469 1468 1467 1466 1465 1464 1463 1462 1462 1462 1462 1462 1462 1463 1463
1481 1482 1482 1482 1481 1481 1480 1480 1479 1479 1478 1477 1477 1476 1475 1474 1472 1471 1470 1468 1467 1465 1464 1463 1462 1461 1460 1458 1458 1456 1456 1455 1455 1455 1455 1455 1454 1456
1479 1479 1479 1478 1478 1478 1477 1476 1475 1475 1474 1473 1473 1472 1470 1469 1468 1466 1465 1463 1462 1460 1459 1458 1457 1455 1454 1451 1451 1451 1450 1449 1448 1448 1448 1447 1447 1448
1476 1476 1476 1475 1475 1474 1474 1473 1472 1471 1470 1470 1469 1467 1466 1465 1464 1462 1460 1459 1457 1455 1453 1453 1452 1450 1449 1447 1445 1444 1445 1444 1443 1441 1441 1441 1441 1442
1473 1473 1473 1472 1472 1471 1470 1470 1469 1468 1467 1466 1465 1464 1462 1461 1459 1458 1456 1454 1452 1450 1448 1447 1446 1445 1444 1442 1440 1438 1438 1438 1437 1436 1435 1435 1434 1434
1471 1471 1470 1470 1469 1468 1468 1467 1466 1465 1464 1463 1461 1460 1459 1457 1456 1454 1452 1450 1448 1446 1444 1442 1441 1439 1438 1437 1435 1433 1432 1431 1431 1430 1430 1429 1428 1427
1470 1469 1468 1467 1467 1466 1465 1464 1463 1462 1460 1459 1458 1457 1455 1453 1452 1450 1448 1446 1444 1442 1440 1437 1436 1434 1433 1432 1430 1428 1427 1426 1425 1423 1423 1423 1423 1423